SL-19 DEB, 23564

Orbit data source: Space-Track

SL-19 DEB, 23564 is space debris in LEO originally from a launch on Mon, 26 Dec 1994 UTC launched from the Tyuratam Missile And Space Complex (TTMTR). Debris objects in space refer to the collection of defunct objects orbiting the Earth. Examples of debris include non-operational satellites, rocket bodies, and fragments generated from explosions, collisions, or faulty payload assembly.

Loading next visibility...
Identifier
23564, 1994-085V
Orbit
LEO
Country
Flag of CISCIS
Related business
Manufacturer
Unknown
Mission
Spacecraft
Bus & Motor
Unknown
Mass
Unknown
Launch date (UTC)
1994-12-26 (31 years ago)
Launch vehicle
Unknown
Launch site
Tyuratam Missile And Space Complex (TTMTR)
Object type
Payload
Rocket body
Debris
Shape & HBR
Unknown shape, 0.1 m
Radar Cross Section
Small (<0.1 m²)

Expand to show TLE details & history
Last TLE update: 12 hours ago

TLE from 12 hours ago
0 SL-19 DEB
1 23564U 94085V   25310.01477784  .00000007  00000-0  12866-2 0  9997
2 23564  64.9918 150.5234 0185086 127.2141  26.1568 11.34894128262846
Epoch: 2025-11-06T00:21Z
TLE epoch observation values (Epoch: 2025-11-06T00:21:16.805Z)
Latitude
23.15192°
Longitude
-91.72678°
Altitude
1,849.449 km
Speed
7.021 km/s
True Right ascension
21h 16m 17s
True Declination
23° 02' 40"
Sunlit
Object was in daylight at epoch
Visualization orbit readout
Latitude
Unknown
Longitude
Unknown
Altitude
Unknown
Speed
Unknown
Apparent Right ascension
Unknown
Apparent Declination
Unknown
Sunlit
N/A
Visualization observer readout
Local Sidereal Time
08:40:36
Azimuth
Unknown
Elevation
Unknown
Doppler factor
Unknown
Orbital elements
Apogee altitude
2,139.775 km
Perigee altitude
1,830.195 km
Semi-major axis
8,363.122 km
Eccentricity
0.01851
Inclination
64.9918°
RAAN
150.5234°
Arg. of periapsis
127.2141°
True anomaly
27.11153°
Mean anomaly
26.1568°
Eccentric anomaly
26.63216°
Mean motion
2.83786 °/min
Orbital period
126.86 mins
BSTAR
0.0012866
Loading maneuver chart data...
Computing Atmospheric mass density...
Loading historical data...
Loading historical data...
Loading historical data...
Loading historical data...
Loading historical data...
Loading historical data...
Loading historical data...

Documentation

Showing up to 5 results
|